[[{"header":{"parameterUnit":"m.s-1","parameterCategory":1,"la1":30.2991,"la2":30.254,"lo1":-89.0895,"lo2":-89.0444,"dy":0.0017,"dx":0.0017,"nx":28,"ny":28,"refTime":"2023-09-22T03:00:00:Z","depth":0,"parameterNumber":2,"parameterNumberName":"U-component_of_WINDS"},"data":[0,0,0,0,0,0,0,0,0,0,0,0,0,0,0,0,0,0,0,0,0,0,0,0,0,0,0,0,0,0,0,0,0,0,0,0,0,0,0,0,0,0,0,0,0,0,0,0,0,0,0,0,0,0,0,0,0,0,-4.3527,-4.3528,0,-4.3609,-4.361,-4.361,-4.3469,-4.3465,-4.346,-4.3455,-4.354,-4.3547,-4.3553,0,0,0,0,0,0,0,0,0,0,0,0,0,-4.3251,-4.3256,-4.3527,-4.3528,-4.3529,-4.3608,-4.361,-4.3611,-4.347,-4.3464,-4.3459,-4.3453,-4.3538,-4.3546,-4.3554,0,0,0,0,0,0,0,0,0,0,0,0,0,-4.3355,-4.3258,-4.3527,-4.3469,-4.3464,-4.3608,-4.361,-4.3611,-4.3471,-4.3464,-4.3457,-4.345,-4.3535,-4.3545,-4.3555,-4.376,0,0,-4.3586,-4.359,0,0,0,0,0,0,0,0,-4.335,-4.3366,-4.3476,-4.3473,-4.3468,-4.3521,-4.3543,-4.3661,-4.3473,-4.3469,-4.3455,-4.3447,-4.354,-4.3549,-4.358,-4.3764,-4.3767,-4.3586,-4.3593,-4.3597,-4.36,0,0,0,0,0,0,0,-4.3342,-4.3361,-4.3559,-4.3478,-4.3473,-4.3439,-4.3446,-4.3565,-4.3543,-4.3469,-4.3459,-4.347,-4.3536,-4.3571,-4.3581,-4.3769,-4.3586,-4.3595,-4.3601,-4.3605,-4.4125,-4.4132,0,0,0,0,0,0,-4.3342,-4.3356,-4.3557,-4.3562,-4.339,-4.3449,-4.3457,-4.3512,-4.3542,-4.3539,-4.3476,-4.3463,-4.3557,-4.3569,-4.3583,-4.3825,-4.3597,-4.3606,-4.3612,-4.4117,-4.4126,-4.4135,0,0,0,0,0,0,-4.3337,-4.3362,-4.3553,-4.3456,-4.3478,-4.3462,-4.3524,-4.3517,-4.3551,-4.3547,-4.3543,-4.3515,-4.3552,-4.3569,-4.3717,-4.3826,-4.3611,-4.362,-4.4108,-4.412,-4.4131,-4.4311,0,0,0,0,0,0,-4.333,-4.336,-4.3438,-4.3459,-4.3484,-4.3686,-4.3531,-4.3524,-4.3569,-4.3553,-4.3583,-4.3581,-4.3548,-4.3703,-4.3727,-4.3836,-4.3628,-4.4098,-4.4113,-4.4127,-4.4295,-4.4327,-4.4355,0,0,0,0,0,-4.332,-4.3486,-4.3443,-4.3468,-4.3581,-4.3693,-4.3707,-4.3665,-4.3578,-4.3656,-4.3654,-4.358,-4.381,-4.3719,-4.3745,-4.3859,-4.4091,-4.4109,-4.4126,-4.4282,-4.4321,-4.4354,0,0,0,0,0,0,-4.3479,-4.3488,-4.344,-4.3617,-4.3655,-4.3669,-4.3766,-4.3708,-4.3771,-4.3753,-4.3699,-4.3707,-4.3866,-4.3877,-4.3775,-4.4059,-4.3936,-4.396,-4.4046,-4.4083,-4.4112,-4.4107,-4.3636,0,0,0,0,0,-4.3534,-4.3624,-4.3627,-4.3784,-4.3805,-4.3783,-4.383,-4.3794,-4.3831,-4.3847,-4.3855,-4.3894,-4.3975,-4.4029,-4.4104,-4.4296,-4.4301,-4.4387,-4.4417,-4.4442,-4.4463,-4.4565,-4.4604,-4.4192,-4.4192,-4.4192,0,0,-4.365,-4.3666,-4.3726,-4.3816,-4.3841,-4.3936,-4.3797,-4.3903,-4.3973,-4.3863,-4.4002,-4.401,-4.405,-4.4221,-4.4297,-4.4235,-4.4577,-4.4464,-4.4484,-4.4491,-4.4587,-4.4626,-4.4661,-4.4204,-4.4202,-4.42,0,0,-4.3909,-4.3931,-4.4063,-4.4091,-4.4131,-4.4114,-4.4147,-4.4169,-4.417,-4.4309,-4.4228,-4.4311,-4.4451,-4.4483,-4.4518,-4.479,-4.4724,-4.4815,-4.4972,-4.5072,-4.5105,-4.5133,-4.523,-4.5266,-4.4836,-4.4837,-4.4837,0,-4.4048,-4.4187,-4.4138,-4.425,-4.4292,-4.4196,-4.433,-4.436,-4.4422,-4.4454,-4.4384,-4.4558,-4.4578,-4.4755,-4.4822,-4.4853,-4.4888,-4.4812,-4.5104,-4.5132,-4.5158,-4.525,-4.5286,-4.4848,-4.4846,-4.4845,-4.4844,0,-4.4356,-4.4454,-4.4556,-4.4619,-4.4672,-4.4794,-4.4764,-4.4824,-4.4784,-4.4775,-4.4919,-4.494,-4.5016,-4.5056,-4.5018,-4.5228,-4.5188,-4.5113,-4.4988,-4.5209,-4.5294,-4.5329,-4.4863,-4.4859,-4.4856,-4.4853,0,0,-4.4718,-4.4751,-4.479,-4.4817,-4.4853,-4.4928,-4.5046,-4.5121,-4.5174,-4.522,-4.5318,-4.5439,-4.5369,-4.5408,-4.5373,-4.5461,-4.5675,-4.5374,-4.5374,-4.5429,-4.5909,-4.5966,-4.6007,-4.5632,-4.5639,-4.5644,-4.5905,0,-4.4975,-4.5178,-4.5138,-4.5337,-4.5427,-4.5337,-4.544,-4.5474,-4.547,-4.5545,-4.5539,-4.5627,-4.5527,-4.555,-4.5634,-4.5632,-4.5771,-4.5612,-4.5723,-4.5728,-4.5716,-4.6052,-4.6113,-4.6358,-4.5938,-4.5944,-4.5948,0,-4.5303,-4.5361,-4.5569,-4.5592,-4.5628,-4.5721,-4.5786,-4.586,-4.5897,-4.5887,-4.5932,-4.5879,-4.5997,-4.5871,-4.6032,-4.5925,-4.5968,-4.5974,-4.5983,-4.5992,-4.5851,-4.607,-4.6436,-4.6473,-4.6,-4.5996,-4.5992,0,-4.5546,-4.5676,-4.5818,-4.5844,-4.5873,-4.5941,-4.5957,-4.5986,-4.6034,-4.6091,-4.6121,-4.6192,-4.6231,-4.6287,-4.6255,-4.6166,-4.6423,-4.6294,-4.6418,-4.6419,-4.6476,-4.6473,-4.6854,-4.6504,-4.6504,-4.6503,-4.6502,0,-4.5838,-4.5969,-4.5927,-4.6014,-4.6158,-4.611,-4.6254,-4.6259,-4.6286,-4.6373,-4.63,-4.6383,-4.6336,-4.6415,-4.6391,-4.6529,-4.6547,-4.6543,-4.6535,-4.6549,-4.655,-4.6577,-4.6559,-4.6513,-4.651,-4.6509,-4.6507,0,-4.6133,-4.6111,-4.6259,-4.6275,-4.6282,-4.6387,-4.6401,-4.6482,-4.6472,-4.6582,-4.6606,-4.659,-4.668,-4.6653,-4.6751,-4.6734,-4.6909,-4.6879,-4.6896,-4.6889,-4.7015,-4.7003,-4.7426,-4.7479,-4.7096,-4.7099,-4.7102,0,-4.6321,-4.642,-4.6446,-4.6499,-4.652,-4.6605,-4.6653,-4.6611,-4.6664,-4.6713,-4.6789,-4.6872,-4.6936,-4.7084,-4.7081,-4.7155,-4.7126,-4.727,-4.7137,-4.7149,-4.7129,-4.7123,-4.7133,-4.7296,-4.7301,-4.7304,-4.7307,0,-4.6657,-4.6641,-4.6713,-4.6782,-4.6841,-4.6893,-4.6939,-4.6986,-4.6946,-4.701,-4.71,-4.715,-4.7249,-4.7333,-4.74,-4.7416,-4.7356,-4.7349,-4.7381,-4.7397,-4.7404,-4.7402,-4.6968,-4.7339,-4.7336,-4.7334,-4.7332,-4.7331,-4.6904,-4.6987,-4.7019,-4.7102,-4.7132,-4.7176,-4.7253,-4.7252,-4.7327,-4.7404,-4.7374,-4.7479,-4.7513,-4.7597,-4.7622,-4.7703,-4.7648,-4.7696,-4.7708,-4.772,-4.7736,-4.7391,-4.7715,-4.7714,-4.7713,-4.7713,-4.7712,0,-4.7236,-4.7252,-4.7328,-4.7394,-4.746,-4.7397,-4.7444,-4.7503,-4.7595,-4.7632,-4.7697,-4.7801,-4.7882,-4.7886,-4.7962,-4.8026,-4.8,-4.8047,-4.8042,-4.8047,-4.778,-4.7745,-4.8067,-4.8067,-4.8067,-4.8067,-4.8067,-4.8066,-4.7416,-4.7554,-4.7542,-4.7694,-4.7708,-4.781,-4.7842,-4.7883,-4.7912,-4.8032,-4.8098,-4.81,-4.8124,-4.8201,-4.8272,-4.8271,-4.8303,-4.8361,-4.835,-4.8101,-4.8066,-4.8032,-4.7998,-4.8368,-4.8368,-4.8609,-4.8611,-4.8613]},{"header":{"parameterUnit":"m.s-1","parameterCategory":1,"la1":30.2991,"la2":30.254,"lo1":-89.0895,"lo2":-89.0444,"dy":0.0017,"dx":0.0017,"nx":28,"ny":28,"refTime":"2023-09-22T03:00:00:Z","depth":0,"parameterNumber":3,"parameterNumberName":"V-component_of_WINDS"},"data":[0,0,0,0,0,0,0,0,0,0,0,0,0,0,0,0,0,0,0,0,0,0,0,0,0,0,0,0,0,0,0,0,0,0,0,0,0,0,0,0,0,0,0,0,0,0,0,0,0,0,0,0,0,0,0,0,0,0,-2.0915,-2.0915,0,-2.0947,-2.0948,-2.0948,-2.0941,-2.0941,-2.094,-2.094,-2.097,-2.0972,-2.0973,0,0,0,0,0,0,0,0,0,0,0,0,0,-2.0844,-2.0846,-2.0915,-2.0915,-2.0916,-2.0947,-2.0948,-2.0948,-2.0941,-2.0941,-2.094,-2.0939,-2.097,-2.0971,-2.0973,0,0,0,0,0,0,0,0,0,0,0,0,0,-2.0876,-2.0846,-2.0915,-2.0916,-2.0917,-2.0947,-2.0948,-2.0948,-2.0942,-2.0941,-2.094,-2.0939,-2.0969,-2.0971,-2.0973,-2.1004,0,0,-2.098,-2.098,0,0,0,0,0,0,0,0,-2.0874,-2.0878,-2.0916,-2.0916,-2.0917,-2.0939,-2.0934,-2.0967,-2.0942,-2.0932,-2.094,-2.0939,-2.0961,-2.0963,-2.0971,-2.1005,-2.1006,-2.098,-2.0981,-2.0982,-2.0982,0,0,0,0,0,0,0,-2.0872,-2.0877,-2.0928,-2.0916,-2.0917,-2.0914,-2.0918,-2.094,-2.0951,-2.0933,-2.0932,-2.0937,-2.0961,-2.0969,-2.0972,-2.1007,-2.098,-2.0981,-2.0983,-2.0984,-2.1066,-2.1066,0,0,0,0,0,0,-2.0869,-2.0875,-2.0927,-2.0929,-2.0893,-2.0916,-2.092,-2.0933,-2.0951,-2.0952,-2.0937,-2.0936,-2.0966,-2.0969,-2.0973,-2.1009,-2.0982,-2.0984,-2.0985,-2.1065,-2.1066,-2.1067,0,0,0,0,0,0,-2.0868,-2.0874,-2.0925,-2.0902,-2.0908,-2.0918,-2.0933,-2.0934,-2.0943,-2.0954,-2.0955,-2.0944,-2.0966,-2.097,-2.0996,-2.101,-2.0985,-2.0987,-2.1064,-2.1065,-2.1066,-2.1081,0,0,0,0,0,0,-2.0866,-2.0874,-2.0886,-2.0902,-2.0909,-2.0949,-2.0934,-2.0935,-2.0947,-2.0945,-2.0961,-2.0963,-2.0965,-2.0993,-2.0998,-2.1012,-2.0988,-2.1062,-2.1064,-2.1066,-2.1079,-2.1083,-2.1086,0,0,0,0,0,-2.0863,-2.0889,-2.0887,-2.0893,-2.0925,-2.095,-2.0954,-2.0957,-2.0948,-2.096,-2.0967,-2.0962,-2.1007,-2.0996,-2.1001,-2.1016,-2.1061,-2.1064,-2.1066,-2.1078,-2.1082,-2.1086,0,0,0,0,0,0,-2.0874,-2.0891,-2.0889,-2.0921,-2.0934,-2.0949,-2.0964,-2.0962,-2.0977,-2.0975,-2.0978,-2.0981,-2.1007,-2.1014,-2.1001,-2.1046,-2.1033,-2.1036,-2.104,-2.1044,-2.1047,-2.1045,-2.099,0,0,0,0,0,-2.088,-2.0899,-2.0913,-2.0939,-2.0946,-2.0954,-2.0964,-2.0966,-2.0979,-2.0985,-2.0994,-2.1006,-2.1023,-2.1034,-2.105,-2.108,-2.1083,-2.1093,-2.1096,-2.1099,-2.1102,-2.1117,-2.1121,-2.1074,-2.1074,-2.1074,0,0,-2.0892,-2.0904,-2.0916,-2.0941,-2.0952,-2.097,-2.0959,-2.0979,-2.0993,-2.0988,-2.1012,-2.1019,-2.1033,-2.1061,-2.1074,-2.1068,-2.1115,-2.1102,-2.1104,-2.1105,-2.1119,-2.1124,-2.1128,-2.1075,-2.1075,-2.1075,0,0,-2.0924,-2.0936,-2.0958,-2.0969,-2.0985,-2.099,-2.0995,-2.101,-2.1015,-2.104,-2.1036,-2.1052,-2.1081,-2.1091,-2.11,-2.1134,-2.113,-2.1139,-2.1156,-2.1171,-2.1174,-2.1178,-2.1189,-2.1193,-2.1142,-2.1142,-2.1142,0,-2.0937,-2.0966,-2.097,-2.0991,-2.1001,-2.0998,-2.102,-2.103,-2.105,-2.1057,-2.105,-2.1086,-2.1096,-2.1125,-2.1133,-2.1141,-2.1146,-2.1138,-2.1174,-2.1177,-2.118,-2.1191,-2.1195,-2.1143,-2.1143,-2.1143,-2.1143,0,-2.0981,-2.1001,-2.1017,-2.1038,-2.105,-2.1071,-2.1077,-2.1089,-2.1089,-2.1094,-2.1119,-2.113,-2.1148,-2.1155,-2.1155,-2.1184,-2.1179,-2.1173,-2.116,-2.1185,-2.1195,-2.12,-2.1145,-2.1144,-2.1144,-2.1144,0,0,-2.1021,-2.1042,-2.1048,-2.1057,-2.1074,-2.1089,-2.1109,-2.1127,-2.1137,-2.115,-2.1167,-2.1191,-2.1185,-2.1195,-2.1196,-2.1209,-2.1234,-2.1201,-2.1201,-2.1206,-2.1265,-2.127,-2.1275,-2.1232,-2.1233,-2.1233,-2.1264,0,-2.1054,-2.1091,-2.1095,-2.1127,-2.1145,-2.1142,-2.1159,-2.1171,-2.1176,-2.1191,-2.1196,-2.1213,-2.1204,-2.121,-2.1223,-2.1229,-2.1246,-2.1227,-2.1246,-2.1247,-2.1242,-2.128,-2.1285,-2.1313,-2.1268,-2.1269,-2.1269,0,-2.1098,-2.1113,-2.1148,-2.1161,-2.1169,-2.1185,-2.1201,-2.1215,-2.1228,-2.123,-2.1241,-2.124,-2.126,-2.1247,-2.1273,-2.126,-2.1268,-2.1272,-2.1273,-2.1274,-2.1259,-2.1282,-2.1323,-2.1327,-2.1276,-2.1275,-2.1275,0,-2.1122,-2.1152,-2.1176,-2.1183,-2.12,-2.1211,-2.1218,-2.1229,-2.124,-2.1253,-2.126,-2.1275,-2.1284,-2.1295,-2.1298,-2.1288,-2.1324,-2.1311,-2.1326,-2.1326,-2.1333,-2.1333,-2.1375,-2.134,-2.134,-2.1339,-2.1339,0,-2.1159,-2.118,-2.1187,-2.1202,-2.1225,-2.1228,-2.125,-2.1256,-2.1266,-2.1281,-2.1279,-2.1293,-2.1296,-2.131,-2.1313,-2.1333,-2.1337,-2.1339,-2.134,-2.1339,-2.1339,-2.1344,-2.1342,-2.1341,-2.134,-2.134,-2.134,0,-2.119,-2.1196,-2.1222,-2.1235,-2.1239,-2.1255,-2.1266,-2.1279,-2.1284,-2.1303,-2.1307,-2.1314,-2.1331,-2.1335,-2.1354,-2.1356,-2.138,-2.1379,-2.1376,-2.1376,-2.139,-2.1388,-2.1437,-2.1443,-2.1404,-2.1404,-2.1405,0,-2.1212,-2.1229,-2.1243,-2.1254,-2.1261,-2.1278,-2.1288,-2.1291,-2.1302,-2.1316,-2.1328,-2.1344,-2.1357,-2.1384,-2.139,-2.1405,-2.1403,-2.1419,-2.1405,-2.1404,-2.1402,-2.1401,-2.1402,-2.1422,-2.1422,-2.1422,-2.1423,0,-2.1251,-2.1253,-2.1269,-2.1285,-2.1297,-2.131,-2.1322,-2.133,-2.1334,-2.1346,-2.1363,-2.1374,-2.1393,-2.1409,-2.1424,-2.143,-2.1427,-2.1427,-2.1431,-2.1431,-2.1428,-2.1429,-2.1383,-2.1426,-2.1426,-2.1425,-2.1425,-2.1425,-2.1278,-2.1292,-2.1304,-2.1321,-2.1331,-2.1342,-2.1355,-2.1361,-2.1375,-2.1392,-2.1393,-2.1411,-2.1422,-2.1441,-2.1448,-2.1461,-2.1456,-2.1463,-2.1464,-2.1465,-2.1466,-2.1426,-2.1464,-2.1464,-2.1464,-2.1464,-2.1464,0,-2.1316,-2.1324,-2.134,-2.1356,-2.1369,-2.1366,-2.1378,-2.1389,-2.1405,-2.1416,-2.1429,-2.1448,-2.1463,-2.147,-2.1485,-2.1494,-2.1493,-2.1498,-2.1497,-2.1498,-2.147,-2.1465,-2.1498,-2.1498,-2.1498,-2.1498,-2.1498,-2.1498,-2.1338,-2.136,-2.1363,-2.139,-2.1397,-2.1416,-2.1423,-2.1433,-2.1441,-2.1462,-2.1475,-2.148,-2.1489,-2.1504,-2.1517,-2.1518,-2.1524,-2.1529,-2.153,-2.1504,-2.15,-2.1497,-2.1492,-2.153,-2.153,-2.1556,-2.1557,-2.1557]}]]